WX2NJ-13 Weather Reports


Display with metric or nautical units.
time (UTC)temp
F
wind
direction
speed
MPH
gust
MPH
rain 1hr
in
rain 24hr
in
rain mn
in
humidity
%
barometer
mb
20181015104245 57 198 0.0 0.0 0.01 0.00 0.01 100 1020.2
20181015103746 57 198 0.0 0.0 0.01 0.00 0.01 100 1020.1
20181015103247 57 198 0.0 0.0 0.01 0.00 0.01 100 1020.0
20181015102746 57 198 0.0 0.0 0.01 0.00 0.01 100 1019.9
20181015102248 57 198 0.0 0.0 0.01 0.00 0.01 100 1020.0
20181015101749 57 198 0.0 0.0 0.01 0.00 0.01 100 1020.1
20181015101245 57 198 0.0 0.0 0.01 0.00 0.01 100 1020.1
20181015100746 57 198 0.0 0.0 0.01 0.00 0.01 100 1020.4
20181015100248 57 198 0.0 0.0 0.01 0.00 0.01 100 1020.4
20181015095746 56 198 0.0 0.0 0.01 0.00 0.01 100 1020.3
20181015095248 56 153 0.0 0.0 0.00 0.00 0.01 100 1020.4
20181015094749 56 153 0.0 0.0 0.00 0.00 0.01 100 1020.4
20181015094247 56 153 0.0 0.0 0.00 0.00 0.01 100 1020.6
20181015093749 56 153 0.0 0.0 0.00 0.00 0.00 100 1020.5
20181015093250 56 184 0.0 0.0 0.00 0.00 0.00 100 1020.7
20181015092749 56 184 0.0 0.0 0.00 0.00 0.00 100 1020.7
20181015092251 56 193 0.0 0.0 0.00 0.00 0.00 100 1020.8
20181015091755 56 193 1.0 0.0 0.00 0.00 0.00 100 1020.8
20181015091250 56 197 0.0 1.0 0.00 0.00 0.00 100 1020.9
20181015090751 55 186 0.0 0.0 0.00 0.00 0.00 100 1020.9
20181015090253 55 200 1.0 1.0 0.00 0.00 0.00 100 1021.0
20181015085751 55 248 3.0 1.0 0.00 0.00 0.00 100 1021.0
20181015085252 55 198 0.0 0.0 0.00 0.00 0.00 100 1021.0
20181015084754 55 198 0.0 0.0 0.00 0.00 0.00 100 1021.0
20181015084252 55 198 0.0 0.0 0.00 0.00 0.00 100 1021.1
20181015083754 55 198 0.0 0.0 0.00 0.00 0.00 100 1021.1
20181015083255 55 198 0.0 0.0 0.00 0.00 0.00 100 1021.2
20181015082753 55 198 0.0 0.0 0.00 0.00 0.00 100 1021.1
20181015082254 55 198 0.0 0.0 0.00 0.00 0.00 100 1021.1
20181015081756 55 198 0.0 0.0 0.00 0.00 0.00 100 1021.2
20181015081253 55 198 0.0 0.0 0.00 0.00 0.00 100 1021.3
20181015080755 54 198 0.0 0.0 0.00 0.00 0.00 100 1021.3
20181015080256 54 198 0.0 0.0 0.00 0.00 0.00 100 1021.3
20181015075755 54 198 0.0 0.0 0.00 0.00 0.00 100 1021.4
20181015075256 54 198 0.0 0.0 0.00 0.00 0.00 100 1021.4
20181015074757 54 198 0.0 0.0 0.00 0.00 0.00 100 1021.3
20181015074256 54 267 0.0 0.0 0.00 0.00 0.00 100 1021.3
20181015073757 54 228 0.0 0.0 0.00 0.00 0.00 100 1021.4
20181015073258 54 228 0.0 0.0 0.00 0.00 0.00 100 1021.5
20181015072756 54 228 0.0 0.0 0.00 0.00 0.00 100 1021.6
20181015072257 54 228 0.0 0.0 0.00 0.00 0.00 100 1021.6
20181015071758 54 228 0.0 0.0 0.00 0.00 0.00 100 1021.5
20181015071256 54 228 0.0 0.0 0.00 0.00 0.00 100 1021.6
20181015070758 54 228 0.0 0.0 0.00 0.00 0.00 100 1021.6
20181015070259 54 228 0.0 0.0 0.00 0.00 0.00 100 1021.7
20181015065758 54 228 0.0 0.0 0.00 0.00 0.00 100 1021.8
20181015065258 54 228 0.0 0.0 0.00 0.00 0.00 100 1021.7
20181015064800 53 228 0.0 0.0 0.00 0.00 0.00 100 1021.7
20181015064258 53 228 0.0 0.0 0.00 0.00 0.00 100 1021.8
20181015063800 53 228 0.0 0.0 0.00 0.00 0.00 100 1021.8
20181015063258 53 228 0.0 0.0 0.00 0.00 0.00 100 1021.9
20181015062756 53 228 0.0 0.0 0.00 0.00 0.00 100 1021.9
20181015062257 53 228 0.0 0.0 0.00 0.00 0.00 100 1022.0
20181015061759 53 228 0.0 0.0 0.00 0.00 0.00 99 1022.1
20181015061257 53 228 0.0 0.0 0.00 0.00 0.00 100 1021.9
20181015060759 53 228 0.0 0.0 0.00 0.00 0.00 100 1021.8
20181015060259 53 228 0.0 0.0 0.00 0.00 0.00 100 1021.9
20181015055758 53 228 0.0 0.0 0.00 0.00 0.00 100 1022.0
20181015055259 53 174 0.0 0.0 0.00 0.00 0.00 100 1022.0
20181015054800 53 174 0.0 0.0 0.00 0.00 0.00 100 1022.1
20181015054259 53 174 0.0 0.0 0.00 0.00 0.00 100 1022.0
20181015053800 53 174 0.0 0.0 0.00 0.00 0.00 100 1022.1
20181015053302 53 174 0.0 0.0 0.00 0.00 0.00 100 1022.2
20181015052758 53 174 0.0 0.0 0.00 0.00 0.00 100 1022.2
20181015052300 53 174 0.0 0.0 0.00 0.00 0.00 100 1022.3
20181015051801 52 174 0.0 0.0 0.00 0.00 0.00 100 1022.3
20181015051258 52 174 0.0 0.0 0.00 0.00 0.00 100 1022.3
20181015050759 52 174 0.0 0.0 0.00 0.00 0.00 100 1022.3
20181015050300 52 174 0.0 0.0 0.00 0.00 0.00 100 1022.4
20181015045258 52 174 0.0 0.0 0.00 0.00 0.00 99 1022.5
20181015044800 52 174 0.0 0.0 0.00 0.00 0.00 99 1022.4
20181015044258 52 174 0.0 0.0 0.00 0.00 0.00 99 1022.5
20181015043759 51 174 0.0 0.0 0.00 0.00 0.00 99 1022.6
20181015043301 51 174 0.0 0.0 0.00 0.00 0.00 99 1022.6
20181015042759 51 174 0.0 0.0 0.00 0.00 0.00 99 1022.6
20181015042300 51 174 0.0 0.0 0.00 0.00 0.00 99 1022.7
20181015041801 51 174 0.0 0.0 0.00 0.00 0.00 99 1022.8
20181015041259 51 174 0.0 0.0 0.00 0.00 0.00 99 1022.8
20181015040801 51 174 0.0 0.0 0.00 0.00 0.00 99 1022.8
20181015040302 51 174 0.0 0.0 0.00 0.00 0.00 98 1022.8
20181015035800 51 174 0.0 0.0 0.00 0.00 0.00 98 1022.7
20181015035302 50 174 0.0 0.0 0.00 0.03 0.00 98 1022.8
20181015034803 50 174 0.0 0.0 0.00 0.03 0.00 98 1022.8
20181015034301 50 174 0.0 0.0 0.00 0.03 0.00 98 1022.9
20181015033803 50 174 0.0 0.0 0.00 0.03 0.00 98 1023.1
20181015033304 50 174 0.0 0.0 0.00 0.03 0.00 98 1023.1
20181015032803 50 174 0.0 0.0 0.00 0.03 0.00 98 1023.3
20181015032304 50 174 0.0 0.0 0.00 0.03 0.00 98 1023.2
20181015031806 50 174 0.0 0.0 0.00 0.03 0.00 98 1023.1
20181015031304 51 174 0.0 0.0 0.00 0.03 0.00 98 1023.1
20181015030806 51 174 0.0 0.0 0.00 0.03 0.00 98 1023.0
20181015030307 51 174 0.0 0.0 0.00 0.03 0.00 98 1023.0
20181015025806 51 174 0.0 0.0 0.00 0.03 0.00 98 1023.1
20181015025305 51 174 0.0 0.0 0.00 0.03 0.00 99 1023.1
20181015024806 51 174 0.0 0.0 0.00 0.03 0.00 99 1023.0
20181015024305 51 174 0.0 0.0 0.00 0.03 0.00 99 1023.0
20181015023806 51 174 0.0 0.0 0.00 0.03 0.00 99 1023.0
20181015023308 51 174 0.0 0.0 0.00 0.03 0.00 99 1023.1
20181015022806 51 174 0.0 0.0 0.00 0.03 0.00 99 1023.1
20181015022308 51 174 0.0 0.0 0.00 0.03 0.00 99 1023.0
20181015021809 51 174 0.0 0.0 0.00 0.03 0.00 99 1023.0
20181015021308 51 174 0.0 0.0 0.00 0.03 0.00 99 1023.0
20181015020809 51 174 0.0 0.0 0.00 0.03 0.00 99 1023.0
20181015020310 51 174 0.0 0.0 0.00 0.03 0.00 98 1023.1
20181015015809 51 174 0.0 0.0 0.00 0.03 0.00 98 1023.1
20181015015310 50 174 0.0 0.0 0.00 0.03 0.00 98 1023.1
20181015014812 50 174 0.0 0.0 0.00 0.03 0.00 98 1023.1
20181015014310 50 174 0.0 0.0 0.00 0.03 0.00 98 1023.0
20181015013812 50 174 0.0 0.0 0.00 0.03 0.00 98 1023.0
20181015013313 50 174 0.0 0.0 0.00 0.03 0.00 98 1023.1
20181015012809 50 174 0.0 0.0 0.00 0.03 0.00 97 1023.0
20181015012311 50 174 0.0 0.0 0.00 0.03 0.00 97 1022.9
20181015011812 50 174 0.0 0.0 0.00 0.03 0.00 97 1022.9
20181015011310 50 174 0.0 0.0 0.00 0.03 0.00 97 1022.9
20181015010811 50 174 0.0 0.0 0.00 0.03 0.00 96 1022.9
20181015010313 50 174 0.0 0.0 0.00 0.03 0.00 96 1022.9
20181015005811 50 174 0.0 0.0 0.00 0.03 0.00 96 1022.9
20181015005312 50 174 0.0 0.0 0.00 0.03 0.00 95 1022.9
20181015004814 50 174 0.0 0.0 0.00 0.03 0.00 95 1022.9
20181015004312 50 174 0.0 0.0 0.00 0.03 0.00 95 1022.9
20181015003814 50 174 0.0 0.0 0.00 0.03 0.00 95 1022.8
20181015003315 51 174 0.0 0.0 0.00 0.03 0.00 94 1022.8
20181015002813 51 174 0.0 0.0 0.00 0.03 0.00 94 1022.8
20181015002315 51 174 0.0 0.0 0.00 0.03 0.00 94 1022.8
20181015001816 51 174 0.0 0.0 0.00 0.03 0.00 94 1022.8
20181015001313 51 174 0.0 0.0 0.00 0.03 0.00 94 1022.9
20181015000814 52 174 0.0 0.0 0.00 0.03 0.00 94 1022.9
20181015000315 52 174 0.0 0.0 0.00 0.03 0.00 93 1022.8
20181014235814 52 174 0.0 0.0 0.00 0.03 0.00 93 1022.8
20181014235315 52 174 0.0 0.0 0.00 0.03 0.00 92 1022.8
20181014234814 52 174 0.0 0.0 0.00 0.03 0.00 92 1022.7
20181014234313 53 174 0.0 0.0 0.00 0.03 0.00 91 1022.7
20181014233814 53 174 0.0 0.0 0.00 0.03 0.00 91 1022.7
20181014233316 53 174 0.0 0.0 0.00 0.03 0.00 90 1022.6
20181014232814 53 174 0.0 0.0 0.00 0.03 0.00 90 1022.5
20181014232316 53 174 0.0 0.0 0.00 0.03 0.00 90 1022.5
20181014231817 53 174 0.0 0.0 0.00 0.03 0.00 90 1022.4
20181014231316 54 174 0.0 0.0 0.00 0.03 0.00 89 1022.4
20181014230817 54 174 0.0 0.0 0.00 0.03 0.00 89 1022.4
20181014230318 54 174 0.0 0.0 0.00 0.03 0.00 89 1022.4
20181014225817 54 174 0.0 0.0 0.00 0.03 0.00 88 1022.4
20181014225318 54 174 0.0 0.0 0.00 0.03 0.00 87 1022.4
20181014224820 55 174 0.0 0.0 0.00 0.03 0.00 87 1022.4
20181014224317 55 174 0.0 0.0 0.00 0.03 0.00 86 1022.4
20181014223816 55 174 0.0 0.0 0.00 0.03 0.00 86 1022.4
20181014223318 55 174 0.0 0.0 0.00 0.03 0.00 85 1022.5
20181014222816 55 174 0.0 0.0 0.00 0.03 0.00 84 1022.5
20181014222318 56 174 0.0 0.0 0.00 0.03 0.00 83 1022.6
20181014221819 56 174 0.0 0.0 0.00 0.03 0.00 83 1022.6
20181014221318 56 174 0.0 0.0 0.00 0.03 0.00 82 1022.6
20181014220819 56 174 0.0 0.0 0.00 0.03 0.00 82 1022.6
20181014220321 57 174 0.0 0.0 0.00 0.03 0.00 82 1022.6
20181014215818 57 174 0.0 0.0 0.00 0.03 0.00 81 1022.6
20181014215320 57 174 0.0 0.0 0.00 0.03 0.00 81 1022.7
20181014214821 57 174 0.0 0.0 0.00 0.03 0.00 80 1022.7
20181014214319 57 174 0.0 0.0 0.00 0.03 0.00 80 1022.6
20181014213820 58 174 0.0 0.0 0.00 0.03 0.00 80 1022.6
20181014213320 58 174 0.0 0.0 0.00 0.03 0.00 79 1022.6
20181014212819 58 174 0.0 0.0 0.00 0.03 0.00 77 1022.7
20181014212320 58 174 0.0 0.0 0.00 0.03 0.00 77 1022.8
20181014211822 58 174 0.0 0.0 0.00 0.03 0.00 75 1022.9
20181014211321 58 174 0.0 0.0 0.00 0.03 0.00 75 1022.8
20181014210821 58 174 0.0 0.0 0.00 0.03 0.00 74 1022.8
20181014210322 59 174 1.0 0.0 0.00 0.03 0.00 73 1023.0
20181014205821 59 200 0.0 0.0 0.00 0.03 0.00 74 1022.9
20181014205320 59 200 1.0 0.0 0.00 0.03 0.00 74 1023.0
20181014204822 59 229 0.0 0.0 0.00 0.03 0.00 74 1022.9
20181014204321 59 221 1.0 0.0 0.00 0.03 0.00 74 1022.9
20181014203822 59 262 0.0 2.0 0.00 0.03 0.00 75 1023.1
20181014203323 59 238 0.0 0.0 0.00 0.03 0.00 75 1023.3
20181014202822 59 129 0.0 0.0 0.00 0.03 0.00 74 1023.2
20181014202323 59 186 0.0 0.0 0.00 0.03 0.00 75 1023.2
20181014201825 59 207 0.0 0.0 0.00 0.03 0.00 74 1023.1
20181014201323 59 264 0.0 0.0 0.00 0.03 0.00 73 1023.2
20181014200824 59 264 0.0 0.0 0.00 0.03 0.00 72 1023.0
20181014200326 59 264 0.0 0.0 0.00 0.03 0.00 72 1023.2
20181014195824 59 264 0.0 0.0 0.00 0.03 0.00 71 1023.2
20181014195326 59 264 0.0 0.0 0.00 0.03 0.00 71 1023.1
20181014194827 59 264 0.0 0.0 0.00 0.03 0.00 70 1023.1
20181014194325 59 264 0.0 0.0 0.00 0.03 0.00 68 1023.0
20181014193827 60 264 0.0 0.0 0.00 0.03 0.00 68 1023.1
20181014193328 60 264 0.0 0.0 0.00 0.03 0.00 67 1023.2
20181014192826 60 328 1.0 0.0 0.00 0.03 0.00 67 1023.2
20181014192328 60 315 0.0 1.0 0.00 0.03 0.00 67 1023.2
20181014191829 61 179 0.0 0.0 0.00 0.03 0.00 68 1023.1
20181014191328 60 179 0.0 0.0 0.00 0.03 0.00 68 1023.0
20181014190829 60 179 0.0 0.0 0.00 0.03 0.00 67 1023.0
20181014190330 60 312 1.0 0.0 0.00 0.03 0.00 67 1022.9
20181014185829 59 255 3.0 1.0 0.00 0.03 0.00 68 1022.9
20181014185331 59 309 2.0 0.0 0.00 0.03 0.00 71 1022.8
20181014184831 59 256 1.0 1.0 0.00 0.03 0.00 74 1022.9
20181014184328 58 13 1.0 0.0 0.00 0.03 0.00 75 1022.9
20181014183829 58 262 0.0 0.0 0.00 0.03 0.00 81 1023.2
20181014183330 58 245 0.0 0.0 0.00 0.03 0.00 81 1023.1
20181014182829 57 239 0.0 0.0 0.00 0.03 0.00 82 1023.0
20181014182330 57 239 0.0 0.0 0.00 0.03 0.00 81 1023.0
20181014181832 58 239 0.0 0.0 0.00 0.03 0.00 80 1022.9
20181014181330 58 239 0.0 0.0 0.00 0.03 0.00 78 1023.0
20181014180832 58 239 0.0 0.0 0.00 0.03 0.00 77 1023.2
20181014180333 58 239 0.0 0.0 0.00 0.03 0.00 77 1023.2
20181014175832 58 248 0.0 0.0 0.00 0.03 0.00 76 1023.3
20181014175333 58 253 0.0 0.0 0.00 0.03 0.00 76 1023.3
20181014174834 59 195 0.0 0.0 0.00 0.03 0.00 75 1023.3
20181014174333 58 195 0.0 0.0 0.00 0.03 0.00 75 1023.4
20181014173834 58 203 0.0 2.0 0.00 0.03 0.00 75 1023.4
20181014173336 58 224 2.0 1.0 0.00 0.03 0.00 76 1023.4
20181014172834 58 152 0.0 0.0 0.00 0.03 0.00 78 1023.5
20181014172336 58 201 0.0 0.0 0.00 0.03 0.00 79 1023.7
20181014171837 58 160 0.0 0.0 0.00 0.03 0.00 78 1023.7
20181014171335 58 124 0.0 0.0 0.00 0.03 0.00 79 1023.8
20181014170836 58 124 0.0 0.0 0.00 0.03 0.00 79 1023.8
20181014170337 58 124 0.0 0.0 0.00 0.03 0.00 78 1023.9
20181014165834 58 208 0.0 0.0 0.00 0.03 0.00 78 1024.0
20181014165335 58 208 0.0 0.0 0.00 0.03 0.00 78 1024.1
20181014164837 59 208 0.0 0.0 0.00 0.03 0.00 77 1024.0
20181014164334 59 208 0.0 0.0 0.00 0.03 0.00 76 1024.1
20181014163836 59 208 1.0 0.0 0.00 0.03 0.00 75 1024.1
20181014163337 59 174 0.0 0.0 0.00 0.03 0.00 75 1024.3
20181014162837 59 174 0.0 0.0 0.00 0.03 0.00 74 1024.4
20181014162337 59 174 0.0 0.0 0.00 0.03 0.00 74 1024.3
20181014161839 59 174 0.0 0.0 0.00 0.03 0.00 72 1024.5
20181014161338 59 319 0.0 0.0 0.00 0.03 0.00 72 1024.5
20181014160839 59 319 0.0 0.0 0.00 0.03 0.00 72 1024.4
20181014160340 59 319 0.0 0.0 0.00 0.03 0.00 72 1024.3
20181014155839 59 319 0.0 0.0 0.00 0.03 0.00 72 1024.3
20181014155341 59 319 0.0 0.0 0.00 0.03 0.00 71 1024.3
20181014154842 59 319 0.0 0.0 0.00 0.03 0.00 71 1024.2
20181014154341 59 319 0.0 0.0 0.00 0.03 0.00 71 1024.2
20181014153842 59 319 0.0 0.0 0.00 0.03 0.00 71 1024.2
20181014153343 59 295 0.0 2.0 0.00 0.03 0.00 71 1024.3
20181014152840 59 333 0.0 0.0 0.00 0.03 0.00 71 1024.2
20181014152341 59 333 0.0 0.0 0.00 0.03 0.00 69 1024.2
20181014151843 59 328 0.0 1.0 0.00 0.03 0.00 70 1024.0
20181014151340 59 307 0.0 0.0 0.00 0.03 0.00 71 1024.1
20181014150842 59 321 0.0 0.0 0.00 0.03 0.00 72 1024.4
20181014150343 58 217 1.0 1.0 0.00 0.03 0.00 74 1024.3
20181014145842 58 49 1.0 0.0 0.00 0.03 0.00 75 1024.1
20181014145343 58 37 1.0 0.0 0.00 0.03 0.00 75 1024.0
20181014144845 58 297 0.0 1.0 0.00 0.03 0.00 76 1024.0
20181014144343 58 75 0.0 0.0 0.00 0.03 0.00 78 1024.1
20181014143845 57 346 0.0 0.0 0.00 0.03 0.00 78 1024.2
20181014143345 57 318 0.0 3.0 0.00 0.03 0.00 79 1024.2
20181014142844 56 127 0.0 0.0 0.00 0.03 0.00 83 1023.9
20181014142344 56 127 0.0 0.0 0.00 0.03 0.00 86 1023.9
20181014141846 55 336 1.0 0.0 0.00 0.03 0.00 89 1024.2
20181014141344 55 23 1.0 1.0 0.00 0.03 0.00 95 1024.1
20181014140846 54 325 1.0 1.0 0.00 0.03 0.00 99 1024.1
20181014140346 53 314 1.0 2.0 0.00 0.03 0.00 100 1024.2
20181014135845 53 6 2.0 3.0 0.00 0.03 0.00 100 1024.0
20181014135346 53 231 0.0 0.0 0.00 0.03 0.00 100 1024.0
20181014134846 52 231 0.0 0.0 0.00 0.03 0.00 100 1023.8
20181014134344 51 231 0.0 0.0 0.00 0.03 0.00 100 1023.9
20181014133845 51 231 0.0 0.0 0.00 0.03 0.00 100 1023.6
20181014133346 50 231 0.0 0.0 0.00 0.03 0.00 100 1023.6
20181014132845 50 231 0.0 0.0 0.00 0.03 0.00 100 1023.5
20181014132346 49 231 0.0 0.0 0.00 0.03 0.00 100 1023.4
20181014131847 48 231 0.0 0.0 0.00 0.03 0.00 100 1023.4
20181014131346 48 231 0.0 0.0 0.00 0.03 0.00 100 1023.1
20181014130846 47 231 0.0 0.0 0.00 0.03 0.00 100 1023.2
20181014130347 47 231 0.0 0.0 0.00 0.03 0.00 100 1023.3
20181014125844 46 231 0.0 0.0 0.00 0.03 0.00 100 1023.1
20181014125344 46 231 0.0 0.0 0.00 0.03 0.00 100 1023.1
20181014124843 46 231 0.0 0.0 0.00 0.03 0.00 100 1023.2
20181014124341 45 231 0.0 0.0 0.00 0.03 0.00 100 1023.0
20181014123843 45 155 0.0 0.0 0.00 0.03 0.00 100 1022.9
20181014123343 45 155 0.0 0.0 0.00 0.03 0.00 100 1023.0
20181014122841 45 155 0.0 0.0 0.00 0.03 0.00 100 1022.8
20181014122343 45 155 0.0 0.0 0.00 0.03 0.00 100 1022.7
20181014121844 45 155 0.0 0.0 0.00 0.03 0.00 100 1022.6
20181014121343 44 155 0.0 0.0 0.00 0.03 0.00 100 1022.4
20181014120844 44 155 0.0 0.0 0.00 0.03 0.00 100 1022.3
20181014120344 44 155 0.0 0.0 0.00 0.03 0.00 100 1022.3
20181014115842 44 155 0.0 0.0 0.00 0.03 0.00 100 1022.2
20181014115343 43 155 0.0 0.0 0.00 0.03 0.00 100 1022.3
20181014114841 43 155 0.0 0.0 0.00 0.03 0.00 100 1022.2
20181014114338 43 155 0.0 0.0 0.00 0.03 0.00 100 1022.1
20181014113839 43 155 0.0 0.0 0.00 0.03 0.00 100 1022.1
20181014113341 42 155 0.0 0.0 0.00 0.03 0.00 100 1022.0
20181014112839 42 155 0.0 0.0 0.00 0.03 0.00 100 1022.1
20181014112340 42 155 0.0 0.0 0.00 0.03 0.00 100 1022.1
20181014111841 42 155 0.0 0.0 0.00 0.03 0.00 100 1022.3
20181014111340 42 155 0.0 0.0 0.00 0.03 0.00 100 1022.3
20181014110841 42 155 0.0 0.0 0.00 0.03 0.00 100 1022.3
20181014110344 42 155 0.0 0.0 0.00 0.03 0.00 100 1022.3
20181014105840 42 155 0.0 0.0 0.00 0.03 0.00 100 1022.4
20181014105338 42 155 0.0 0.0 0.00 0.03 0.00 100 1022.5
20181014104839 42 155 0.0 0.0 0.00 0.03 0.00 100 1022.4